SAS7313 ENBO-LGSA

Flight info

Callsign SAS7313
Flight time N/A
Altitude 35000
Route DISMU DCT PENOR DCT BAREX DCT LITKU/N0435F370 DCT PARAK DCT IBISI DCT MAKED DCT ATV UP169 MANOK L612 RUSOS
Aircraft A320/M-SDE3FGHIJ1RWXYZ/ALB1

Departure

Time 2026-04-23 13:51
Airport Bodø Airport (ENBO)

Arrival

Time N/A
Airport Chania International Airport (LGSA)
Time Latitude Longitude Altitude Speed Heading
2026-04-23 13:19 67.27189 14.36917 47 ft 0 kts 292°
2026-04-23 13:45 67.27180 14.36974 43 ft 4 kts 292°
2026-04-23 13:45 67.27169 14.37039 44 ft 4 kts 292°
2026-04-23 13:45 67.27159 14.37103 46 ft 4 kts 292°
2026-04-23 13:46 67.27155 14.37126 49 ft 0 kts 292°
2026-04-23 13:48 67.27147 14.37104 47 ft 3 kts 187°
2026-04-23 13:48 67.27127 14.37168 51 ft 7 kts 127°
2026-04-23 13:48 67.27111 14.37319 53 ft 13 kts 78°
2026-04-23 13:48 67.27133 14.37559 51 ft 14 kts 77°
2026-04-23 13:49 67.27153 14.37806 56 ft 14 kts 78°
2026-04-23 13:49 67.27162 14.38067 54 ft 16 kts 90°
2026-04-23 13:49 67.27137 14.38347 52 ft 17 kts 144°
2026-04-23 13:49 67.27086 14.38394 54 ft 9 kts 203°
2026-04-23 13:50 67.27071 14.38315 54 ft 0 kts 257°
2026-04-23 13:50 67.27057 14.38155 51 ft 36 kts 257°
2026-04-23 13:50 67.26901 14.36274 39 ft 120 kts 258°
2026-04-23 13:50 67.26714 14.33899 369 ft 136 kts 259°
2026-04-23 13:51 67.26601 14.32307 858 ft 132 kts 262°
2026-04-23 13:51 67.26456 14.29999 1509 ft 131 kts 264°
2026-04-23 13:51 67.26301 14.27558 1814 ft 147 kts 263°
2026-04-23 13:51 67.26123 14.24749 1978 ft 170 kts 263°
2026-04-23 13:52 67.25772 14.21615 2132 ft 198 kts 239°
2026-04-23 13:52 67.24714 14.18954 2373 ft 227 kts 220°
2026-04-23 13:52 67.23335 14.16564 2820 ft 247 kts 216°
2026-04-23 13:52 67.21849 14.14201 3555 ft 254 kts 215°
2026-04-23 13:53 67.20339 14.11788 4399 ft 257 kts 216°
2026-04-23 13:53 67.18815 14.09278 5179 ft 262 kts 217°
2026-04-23 13:53 67.17272 14.06657 5900 ft 268 kts 218°
2026-04-23 13:53 67.15721 14.03960 6590 ft 275 kts 219°
2026-04-23 13:54 67.14126 14.01140 7265 ft 280 kts 220°
2026-04-23 13:54 67.12509 13.98261 7970 ft 285 kts 220°
2026-04-23 13:54 67.10780 13.95618 8652 ft 295 kts 209°
2026-04-23 13:54 67.08788 13.93959 9338 ft 305 kts 200°
2026-04-23 13:55 67.06722 13.92544 9996 ft 310 kts 200°
2026-04-23 13:55 67.04609 13.91081 10411 ft 324 kts 201°
2026-04-23 13:55 67.02360 13.89492 10553 ft 346 kts 201°
2026-04-23 13:55 67.00026 13.87851 10966 ft 356 kts 201°
2026-04-23 13:56 66.97611 13.86180 11544 ft 362 kts 201°
2026-04-23 13:56 66.95164 13.84499 12107 ft 367 kts 201°
2026-04-23 13:56 66.92662 13.82915 12599 ft 379 kts 194°
2026-04-23 13:56 66.89970 13.82846 13091 ft 394 kts 180°
2026-04-23 13:57 66.87251 13.83408 13605 ft 400 kts 179°
2026-04-23 13:57 66.84457 13.84044 14131 ft 405 kts 179°
2026-04-23 13:57 66.81629 13.84717 14617 ft 410 kts 179°
2026-04-23 13:57 66.78774 13.85409 15094 ft 414 kts 178°
2026-04-23 13:58 66.75885 13.86108 15597 ft 417 kts 179°
2026-04-23 13:58 66.72971 13.86796 16048 ft 421 kts 179°
2026-04-23 13:58 66.70032 13.87469 16540 ft 426 kts 179°
2026-04-23 13:58 66.67064 13.88136 17053 ft 430 kts 180°
2026-04-23 13:59 66.64105 13.88794 17548 ft 434 kts 180°
2026-04-23 13:59 66.61076 13.89469 18039 ft 438 kts 180°
2026-04-23 13:59 66.58024 13.90150 18500 ft 442 kts 180°
2026-04-23 13:59 66.54936 13.90845 18941 ft 445 kts 179°
2026-04-23 14:00 66.52888 13.91314 19267 ft 448 kts 178°
2026-04-23 14:00 66.48717 13.92663 19918 ft 454 kts 175°
2026-04-23 14:00 66.45587 13.94002 20400 ft 458 kts 173°
2026-04-23 14:00 66.42444 13.95487 20860 ft 461 kts 173°
2026-04-23 14:01 66.39274 13.97017 21319 ft 464 kts 173°
2026-04-23 14:01 66.36123 13.98497 21765 ft 467 kts 173°
2026-04-23 14:01 66.32916 13.99933 22182 ft 469 kts 174°
2026-04-23 14:01 66.29679 14.01316 22620 ft 472 kts 174°
2026-04-23 14:02 66.26432 14.02653 23066 ft 475 kts 174°
2026-04-23 14:02 66.23156 14.03976 23503 ft 478 kts 175°
2026-04-23 14:02 66.19862 14.05302 23884 ft 480 kts 174°
2026-04-23 14:02 66.16551 14.06644 24227 ft 483 kts 174°
2026-04-23 14:03 66.13224 14.08010 24590 ft 485 kts 174°
2026-04-23 14:03 66.09925 14.09378 24933 ft 487 kts 174°
2026-04-23 14:03 66.06569 14.10774 25311 ft 489 kts 174°
2026-04-23 14:03 66.03202 14.12173 25656 ft 490 kts 174°
2026-04-23 14:04 65.99825 14.13568 26017 ft 492 kts 174°
2026-04-23 14:04 65.96469 14.14943 26353 ft 493 kts 174°
2026-04-23 14:04 65.93065 14.16327 26680 ft 495 kts 174°
2026-04-23 14:04 65.89645 14.17716 26994 ft 497 kts 174°
2026-04-23 14:05 65.86228 14.19094 27316 ft 498 kts 174°
2026-04-23 14:05 65.82804 14.20470 27641 ft 500 kts 174°
2026-04-23 14:05 65.79403 14.21836 27962 ft 502 kts 174°
2026-04-23 14:05 65.75940 14.23229 28304 ft 503 kts 173°
2026-04-23 14:06 65.72470 14.24622 28631 ft 505 kts 173°
2026-04-23 14:06 65.68998 14.26007 29074 ft 503 kts 173°
2026-04-23 14:06 65.65586 14.27367 29534 ft 502 kts 173°
2026-04-23 14:06 65.62136 14.28746 30022 ft 500 kts 173°
2026-04-23 14:07 65.58697 14.30117 30409 ft 499 kts 173°
2026-04-23 14:07 65.51889 14.32816 31165 ft 497 kts 173°
2026-04-23 14:07 65.48464 14.34164 31546 ft 496 kts 174°
2026-04-23 14:08 65.45055 14.35497 31926 ft 495 kts 174°
2026-04-23 14:08 65.41657 14.36816 32325 ft 494 kts 174°
2026-04-23 14:08 65.38266 14.38127 32696 ft 493 kts 174°
2026-04-23 14:08 65.34876 14.39434 33064 ft 493 kts 174°
2026-04-23 14:09 65.31490 14.40742 33422 ft 492 kts 174°
2026-04-23 14:09 65.28110 14.42044 33774 ft 492 kts 174°
2026-04-23 14:09 65.24727 14.43353 34100 ft 491 kts 174°
2026-04-23 14:09 65.21393 14.44648 34371 ft 491 kts 174°
2026-04-23 14:10 65.18014 14.45953 34632 ft 490 kts 174°
2026-04-23 14:10 65.14649 14.47250 34883 ft 490 kts 174°
2026-04-23 14:10 65.11275 14.48545 35001 ft 492 kts 174°
2026-04-23 14:10 65.07879 14.49837 35028 ft 498 kts 174°
2026-04-23 14:11 65.00979 14.52436 35024 ft 503 kts 174°
2026-04-23 14:11 64.94059 14.55063 35025 ft 504 kts 174°
2026-04-23 14:12 64.87171 14.57664 35022 ft 503 kts 174°
2026-04-23 14:12 64.80243 14.60256 35025 ft 503 kts 174°
2026-04-23 14:13 64.73361 14.62807 35025 ft 503 kts 174°
2026-04-23 14:13 64.66433 14.65371 35020 ft 503 kts 174°
2026-04-23 14:14 64.59510 14.67934 35026 ft 502 kts 174°
2026-04-23 14:14 64.52638 14.70442 35027 ft 502 kts 174°
2026-04-23 14:15 64.45715 14.72936 35027 ft 502 kts 174°
2026-04-23 14:15 64.38839 14.75431 35030 ft 501 kts 174°
2026-04-23 14:16 64.31941 14.77940 35034 ft 501 kts 174°
2026-04-23 14:16 64.25078 14.80415 35032 ft 501 kts 174°
2026-04-23 14:17 64.18183 14.82876 35031 ft 500 kts 174°
2026-04-23 14:17 64.11295 14.85300 35032 ft 500 kts 174°
2026-04-23 14:18 64.04404 14.87726 35031 ft 500 kts 174°
2026-04-23 14:18 63.97571 14.90139 35032 ft 500 kts 174°
2026-04-23 14:19 63.90686 14.92558 35036 ft 499 kts 174°
2026-04-23 14:19 63.83814 14.94942 35035 ft 499 kts 174°
2026-04-23 14:20 63.76939 14.97323 35039 ft 499 kts 174°
2026-04-23 14:20 63.70109 14.99696 35039 ft 498 kts 174°
2026-04-23 14:21 63.63242 15.02064 35047 ft 498 kts 174°
2026-04-23 14:21 63.56379 15.04386 35046 ft 497 kts 174°
2026-04-23 14:22 63.49557 15.06690 35053 ft 496 kts 174°
2026-04-23 14:22 63.42754 15.08994 35054 ft 496 kts 174°
2026-04-23 14:23 63.35920 15.11303 35058 ft 495 kts 174°
2026-04-23 14:23 63.29094 15.13598 35062 ft 495 kts 174°
2026-04-23 14:24 63.22314 15.15854 35063 ft 495 kts 174°
2026-04-23 14:24 63.15530 15.18098 35064 ft 495 kts 174°
2026-04-23 14:25 63.08713 15.20353 35069 ft 495 kts 174°
2026-04-23 14:25 63.01893 15.22588 35067 ft 495 kts 174°
2026-04-23 14:26 62.95071 15.24823 35069 ft 495 kts 174°
2026-04-23 14:26 62.88308 15.27040 35068 ft 495 kts 174°
2026-04-23 14:27 62.81471 15.29261 35065 ft 495 kts 174°
2026-04-23 14:27 62.74637 15.31452 35070 ft 496 kts 174°
2026-04-23 14:28 62.67835 15.33615 35069 ft 496 kts 174°
2026-04-23 14:28 62.60999 15.35801 35066 ft 496 kts 174°
2026-04-23 14:29 62.54191 15.37980 35067 ft 496 kts 174°
2026-04-23 14:29 62.47335 15.40159 35069 ft 496 kts 174°
2026-04-23 14:30 62.40535 15.42291 35065 ft 496 kts 174°
2026-04-23 14:30 62.33686 15.44420 35064 ft 496 kts 174°
2026-04-23 14:31 62.26835 15.46559 35058 ft 497 kts 174°
2026-04-23 14:31 62.20025 15.48691 35056 ft 497 kts 174°
2026-04-23 14:32 62.13155 15.50813 35064 ft 498 kts 174°
2026-04-23 14:32 62.06284 15.52919 35058 ft 498 kts 174°
2026-04-23 14:33 61.99447 15.55019 35053 ft 499 kts 174°